Hourly Weather Ruhovichi

Today, 19 April, Monday

Time Temperature Precipitation Wind Pressure Humidity
00:00 +8°C° 0 mm 2 mps 750 mmHg 92%
01:00 +7°C° 0 mm 2 mps 750 mmHg 93%
02:00 +7°C° 0 mm 2 mps 750 mmHg 94%
03:00 +6°C° 0 mm 2 mps 750 mmHg 94%
04:00 +6°C° 0 mm 2 mps 750 mmHg 93%
05:00 +6°C° 0 mm 2 mps 750 mmHg 93%
06:00 +7°C° 0 mm 3 mps 750 mmHg 88%
07:00 +8°C° 0 mm 3 mps 750 mmHg 83%
08:00 +8°C° 0 mm 4 mps 750 mmHg 79%
09:00 +10°C° 0 mm 4 mps 750 mmHg 71%
10:00 +12°C° 0 mm 5 mps 750 mmHg 64%
11:00 +13°C° 0 mm 5 mps 750 mmHg 56%
12:00 +13°C° 0 mm 5 mps 750 mmHg 56%
13:00 +13°C° 0 mm 6 mps 750 mmHg 56%
14:00 +13°C° 0 mm 6 mps 750 mmHg 56%
15:00 +12°C° 0 mm 5 mps 749 mmHg 58%
16:00 +12°C° 0 mm 5 mps 749 mmHg 60%
17:00 +12°C° 0 mm 5 mps 749 mmHg 62%
18:00 +11°C° 0 mm 4 mps 749 mmHg 65%
19:00 +10°C° 0 mm 4 mps 749 mmHg 68%
20:00 +9°C° 0 mm 3 mps 749 mmHg 71%
21:00 +9°C° 0 mm 3 mps 749 mmHg 72%
22:00 +8°C° 0 mm 3 mps 749 mmHg 73%
23:00 +8°C° 0 mm 3 mps 749 mmHg 74%

Tomorrow, 20 April, Tuesday

Time Temperature Precipitation Wind Pressure Humidity
00:00 +7°C° 0 mm 3 mps 749 mmHg 78%
01:00 +6°C° 0 mm 2 mps 749 mmHg 82%
02:00 +5°C° 0 mm 2 mps 748 mmHg 86%
03:00 +5°C° 0 mm 2 mps 748 mmHg 88%
04:00 +4°C° 0 mm 2 mps 748 mmHg 90%
05:00 +3°C° 0 mm 3 mps 748 mmHg 93%
06:00 +4°C° 0 mm 3 mps 748 mmHg 88%
07:00 +7°C° 0 mm 3 mps 748 mmHg 84%
08:00 +8°C° 0 mm 3 mps 748 mmHg 79%
09:00 +8°C° 0.1 mm 3 mps 748 mmHg 76%
10:00 +9°C° 0.1 mm 3 mps 748 mmHg 73%
11:00 +10°C° 0.1 mm 3 mps 747 mmHg 69%
12:00 +10°C° 0 mm 3 mps 747 mmHg 65%
13:00 +12°C° 0 mm 2 mps 747 mmHg 60%
14:00 +13°C° 0 mm 2 mps 746 mmHg 55%
15:00 +13°C° 0.1 mm 2 mps 746 mmHg 56%
16:00 +13°C° 0.1 mm 2 mps 746 mmHg 56%
17:00 +13°C° 0.1 mm 2 mps 745 mmHg 57%
18:00 +12°C° 0.1 mm 2 mps 745 mmHg 64%
19:00 +10°C° 0.1 mm 1 mps 745 mmHg 72%
20:00 +9°C° 0.1 mm 1 mps 745 mmHg 79%
21:00 +8°C° 0.1 mm 1 mps 745 mmHg 81%
22:00 +7°C° 0.1 mm 0 mps 745 mmHg 83%
23:00 +7°C° 0.1 mm 0 mps 745 mmHg 85%

Day after tomorrow, 21 April, Wednesday

Time Temperature Precipitation Wind Pressure Humidity
00:00 +7°C° 0 mm 1 mps 745 mmHg 85%
01:00 +7°C° 0 mm 1 mps 745 mmHg 86%
02:00 +6°C° 0 mm 2 mps 744 mmHg 86%
03:00 +5°C° 0 mm 2 mps 744 mmHg 88%
04:00 +5°C° 0 mm 2 mps 744 mmHg 89%
05:00 +5°C° 0 mm 2 mps 744 mmHg 90%
06:00 +6°C° 0 mm 2 mps 744 mmHg 86%
07:00 +7°C° 0 mm 3 mps 744 mmHg 82%
08:00 +9°C° 0 mm 3 mps 744 mmHg 78%
09:00 +10°C° 0.3 mm 3 mps 744 mmHg 72%
10:00 +11°C° 0.3 mm 4 mps 744 mmHg 66%
11:00 +13°C° 0.3 mm 4 mps 744 mmHg 60%
12:00 +13°C° 0.3 mm 4 mps 744 mmHg 57%
13:00 +14°C° 0.3 mm 4 mps 743 mmHg 54%
14:00 +14°C° 0.3 mm 4 mps 743 mmHg 50%
15:00 +14°C° 0.2 mm 4 mps 743 mmHg 54%
16:00 +13°C° 0.2 mm 4 mps 743 mmHg 57%
17:00 +13°C° 0.2 mm 4 mps 743 mmHg 60%
18:00 +12°C° 0.3 mm 3 mps 743 mmHg 69%
19:00 +10°C° 0.3 mm 3 mps 743 mmHg 77%
20:00 +9°C° 0.3 mm 3 mps 744 mmHg 85%
21:00 +8°C° 0.1 mm 3 mps 744 mmHg 87%
22:00 +8°C° 0.1 mm 3 mps 744 mmHg 89%
23:00 +8°C° 0.1 mm 3 mps 744 mmHg 91%

22 April, Thursday

Time Temperature Precipitation Wind Pressure Humidity
00:00 +7°C° 0 mm 3 mps 744 mmHg 92%
01:00 +7°C° 0 mm 3 mps 744 mmHg 93%
02:00 +7°C° 0 mm 3 mps 744 mmHg 94%
03:00 +5°C° 0 mm 3 mps 744 mmHg 93%
04:00 +5°C° 0 mm 3 mps 744 mmHg 93%
05:00 +4°C° 0 mm 3 mps 744 mmHg 92%
06:00 +5°C° 0 mm 4 mps 745 mmHg 88%
07:00 +6°C° 0 mm 4 mps 745 mmHg 85%
08:00 +7°C° 0 mm 4 mps 746 mmHg 81%
09:00 +8°C° 0 mm 4 mps 746 mmHg 77%
10:00 +8°C° 0 mm 4 mps 746 mmHg 73%
11:00 +10°C° 0 mm 4 mps 746 mmHg 69%
12:00 +8°C° 0.1 mm 4 mps 746 mmHg 71%
13:00 +8°C° 0.1 mm 5 mps 746 mmHg 74%
14:00 +7°C° 0.1 mm 5 mps 747 mmHg 76%
15:00 +7°C° 0.1 mm 4 mps 746 mmHg 76%
16:00 +7°C° 0.1 mm 4 mps 746 mmHg 75%
17:00 +8°C° 0.1 mm 3 mps 746 mmHg 75%
18:00 +8°C° 0.2 mm 3 mps 746 mmHg 77%
19:00 +7°C° 0.2 mm 3 mps 746 mmHg 79%
20:00 +7°C° 0.2 mm 2 mps 747 mmHg 80%
21:00 +6°C° 0.1 mm 2 mps 747 mmHg 79%
22:00 +6°C° 0.1 mm 2 mps 747 mmHg 77%
23:00 +5°C° 0.1 mm 2 mps 746 mmHg 75%

23 April, Friday

Time Temperature Precipitation Wind Pressure Humidity
00:00 +5°C° 0 mm 2 mps 746 mmHg 76%
01:00 +3°C° 0 mm 3 mps 746 mmHg 77%
02:00 +3°C° 0 mm 3 mps 746 mmHg 78%
03:00 +3°C° 0 mm 3 mps 746 mmHg 78%
04:00 +1°C° 0 mm 4 mps 746 mmHg 78%
05:00 +1°C° 0 mm 4 mps 746 mmHg 78%
06:00 +2°C° 0 mm 5 mps 746 mmHg 77%
07:00 +2°C° 0 mm 5 mps 746 mmHg 75%
08:00 +2°C° 0 mm 6 mps 746 mmHg 74%
09:00 +3°C° 0.1 mm 6 mps 747 mmHg 77%
10:00 +3°C° 0.1 mm 6 mps 747 mmHg 79%
11:00 +3°C° 0.1 mm 7 mps 747 mmHg 82%
12:00 +4°C° 0.1 mm 7 mps 747 mmHg 79%
13:00 +4°C° 0.1 mm 7 mps 747 mmHg 77%
14:00 +4°C° 0.1 mm 7 mps 747 mmHg 74%
15:00 +4°C° 0.1 mm 7 mps 747 mmHg 75%
16:00 +4°C° 0.1 mm 7 mps 747 mmHg 76%
17:00 +5°C° 0.1 mm 6 mps 747 mmHg 77%
18:00 +4°C° 0.4 mm 6 mps 748 mmHg 80%
19:00 +3°C° 0.4 mm 5 mps 748 mmHg 83%
20:00 +3°C° 0.4 mm 4 mps 748 mmHg 86%
21:00 +1°C° 0 mm 4 mps 748 mmHg 88%
22:00 +1°C° 0 mm 3 mps 749 mmHg 90%
23:00 +1°C° 0 mm 3 mps 749 mmHg 92%

24 April, Saturday

Time Temperature Precipitation Wind Pressure Humidity
00:00 +1°C° 0 mm 3 mps 748 mmHg 91%
01:00 +1°C° 0 mm 2 mps 748 mmHg 91%
02:00 +1°C° 0 mm 2 mps 748 mmHg 90%
03:00 +1°C° 0.2 mm 2 mps 748 mmHg 91%
04:00 +2°C° 0.2 mm 2 mps 748 mmHg 92%
05:00 +3°C° 0.2 mm 1 mps 748 mmHg 93%
06:00 +3°C° 0.2 mm 1 mps 747 mmHg 92%
07:00 +4°C° 0.2 mm 1 mps 747 mmHg 91%
08:00 +4°C° 0.2 mm 1 mps 747 mmHg 89%
09:00 +3°C° 0.2 mm 2 mps 747 mmHg 88%
10:00 +4°C° 0.2 mm 2 mps 747 mmHg 87%
11:00 +3°C° 0.2 mm 3 mps 746 mmHg 86%
12:00 +3°C° 1.4 mm 3 mps 747 mmHg 84%
13:00 +2°C° 1.4 mm 3 mps 747 mmHg 83%
14:00 +2°C° 1.4 mm 3 mps 747 mmHg 82%
15:00 +3°C° 0.3 mm 4 mps 747 mmHg 78%
16:00 +3°C° 0.3 mm 4 mps 748 mmHg 75%
17:00 +2°C° 0.3 mm 5 mps 748 mmHg 72%
18:00 +1°C° 0.1 mm 4 mps 748 mmHg 77%
19:00 +2°C° 0.1 mm 3 mps 749 mmHg 83%
20:00 +1°C° 0.1 mm 3 mps 749 mmHg 89%
21:00 0°C° 0 mm 3 mps 749 mmHg 88%
22:00 0°C° 0 mm 3 mps 750 mmHg 87%
23:00 0°C° 0 mm 3 mps 750 mmHg 86%
Show more